Regional Weather Roundup
Issued by NWS

Home | Current Version | Previous Version | Text Only | Print | Product List | Glossary On
Versions: 1 2 3 4 5 6 7 8 9 10 11 12 13 14 15 16 17 18 19 20 21 22 23 24 25 26 27 28
000
ASUS44 KLIX 241411
RWRLA
LOUISIANA WEATHER ROUNDUP
NATIONAL WEATHER SERVICE NEW ORLEANS LA
900 AM CDT SUN JUL 24 2016

NOTE: "FAIR" INDICATES FEW OR NO CLOUDS BELOW 12,000 FEET WITH NO
      SIGNIFICANT WEATHER AND/OR OBSTRUCTIONS TO VISIBILITY.
      SKY/WX - SKY CONDITION AND SIGNIFICANT WEATHER.
      TMP - AIR TEMPERATURE.    DP   - DEWPOINT TEMPERATURE.
      RH  - RELATIVE HUMIDITY.  PRES - PRESSURE.
      HX  - HEAT INDEX.         WCI  - WIND CHILL INDEX.

*  THESE STATIONS ARE NOT NWS OR FAA STATIONS AND ARE NOT UNDER
   NWS QUALITY CONTROL.

LAZ040-048-061>063-065-066-069-241500-
SOUTHEAST LOUISIANA

CITY           SKY/WX    TMP DP  RH WIND       PRES   REMARKS
N.O. AUDUBON     N/A     93 N/A N/A MISG        N/A
N.O. INTL ARPT PTSUNNY   86  77  74 W5        29.99R HX  97
N.O. LAKEFRONT MOSUNNY   87  77  72 W9        30.00R HX  99
N.O. DOWNTOWN* FAIR      88  76  67 VRB5      30.00R HX  99
RESERVE*       FAIR      86  80  82 CALM      30.00R HX 102
SLIDELL        PTSUNNY   85  79  82 NW3       29.99R HX  98
BATON ROUGE    CLOUDY    83  77  82 CALM      30.00R
BOOTHVILLE     PTSUNNY   85  76  74 SW8       30.00R
BELLE CHASSE   PTSUNNY   87  78  74 W5        29.99R HX 100
BOGALUSA*      FAIR      83  75  77 CALM      30.02S
GALLIANO*      MOSUNNY   81  76  85 SW6       30.00R
NEW ROADS*     FAIR      83  78  83 CALM      30.00S
GONZALES*      CLOUDY    83  79  88 CALM      29.99R HX  95
HAMMOND*       MOSUNNY   86  75  70 CALM      30.00S HX  95
HOUMA*         MOSUNNY   84  79  84 W3        29.99S HX  96
PORT FOURCHON* MOSUNNY   82  75  78 NW13      29.99S

$$

LAZ041-044-053-054-241500-
SOUTHWEST LOUISIANA

CITY           SKY/WX    TMP DP  RH WIND       PRES   REMARKS
LAKE CHARLES   MOSUNNY   84  74  71 SW9       29.99S
LAFAYETTE      SUNNY     87  77  72 NW3       30.00R HX  99
PATTERSON      MOSUNNY   84  77  79 CALM      30.00R
SALT POINT       N/A     85  77  77 VRB5      29.97S HX  95
NEW IBERIA     SUNNY     86  78  77 NW3       30.00R HX  98
CHENAULT AIRPK PTSUNNY   86  79  79 CALM      29.99  HX  99

$$

LAZ027-028-241500-
CENTRAL LOUISIANA

CITY           SKY/WX    TMP DP  RH WIND       PRES   REMARKS
FORT POLK      SUNNY     84  77  80 W10       29.99R
ALEXANDRIA INT SUNNY     84  77  79 W8        29.98R
ALEXANDRIA     MOSUNNY   82  79  90 W5        30.00R

$$

LAZ001-002-241500-
NORTHWEST LOUISIANA

CITY           SKY/WX    TMP DP  RH WIND       PRES   REMARKS
SHREVEPORT     PTSUNNY   84  78  82 SW6       29.98R HX  95
BARKSDALE AFB  MOSUNNY   84  75  73 W5        29.98R
DTN SHREVEPORT CLOUDY    83  76  79 SW6       29.99R

$$

LAZ014-016-241500-
NORTHEAST LOUISIANA

CITY           SKY/WX    TMP DP  RH WIND       PRES   REMARKS
MONROE         SUNNY     84  78  82 W7        29.99R HX  95
TALLULAH       CLOUDY    86  76  71 VRB3      30.00R HX  96

$$





USA.gov is the U.S. government's official web portal to all federal, state and local government web resources and services.